This demonstration page uses our WeatherBlox Daily Observations layout. Learn more.

Hourly Observations for January 16, 2020

Temp ( °F °C ) Dew Point ( °F °C ) Humidity (%) Winds ( mph kmh ) Pressure ( in mb ) Visibility ( mi km ) Precip ( " mm )
12:15 am 00:15 Clear 8 -13.3 4 -15.8 82 82 NNE 3 6 30.83 1044 10 16.0934 0 0
12:35 am 00:35 Clear 7 -13.9 3 -16.2 83 83 NNE 7 11 30.84 1044 10 16.0934 0 0
12:55 am 00:55 Clear 8 -13.5 3 -16.2 80 80 NNE 3 6 30.84 1044 10 16.0934 0 0
1:15 am 01:15 Clear 7 -14 2 -16.4 82 82 NE 3 6 30.84 1044 10 16.0934 0 0
1:35 am 01:35 Clear 6 -14.6 2 -16.7 84 84 Calm 30.85 1045 10 16.0934 0 0
1:55 am 01:55 Clear 8 -13.6 3 -16.1 82 82 Calm 30.84 1044 10 16.0934 0 0
2:15 am 02:15 Clear 8 -13.6 3 -16.2 81 81 NNE 3 6 30.84 1044 10 16.0934 0 0
2:35 am 02:35 Clear 8 -13.5 3 -16 82 82 Calm 30.85 1045 10 16.0934 0 0
2:55 am 02:55 Clear 8 -13.5 3 -16.1 81 81 Calm 30.87 1045 10 16.0934 0 0
3:15 am 03:15 Clear 7 -13.9 2 -16.5 81 81 Calm 30.86 1045 10 16.0934 0 0
3:35 am 03:35 Clear 6 -14.2 3 -16.3 84 84 Calm 30.87 1045 10 16.0934 0 0
3:55 am 03:55 Clear 5 -15.1 1 -17.1 85 85 Calm 30.87 1045 10 16.0934 0 0
4:15 am 04:15 Clear 5 -15 2 -16.7 87 87 Calm 30.88 1046 10 16.0934 0 0
4:35 am 04:35 Clear 5 -15 1 -17 85 85 Calm 30.87 1045 10 16.0934 0 0
4:55 am 04:55 Clear 5 -15 2 -16.6 88 88 Calm 30.87 1045 10 16.0934 0 0
5:15 am 05:15 Clear 5 -15.1 2 -16.7 88 88 Calm 30.86 1045 10 16.0934 0 0
5:35 am 05:35 Clear 5 -15.1 2 -16.7 88 88 Calm 30.86 1045 10 16.0934 0 0
5:55 am 05:55 Clear 4 -15.4 2 -16.9 88 88 Calm 30.87 1045 10 16.0934 0 0
6:15 am 06:15 Clear 5 -15.1 2 -16.6 88 88 Calm 30.87 1045 10 16.0934 0 0
6:35 am 06:35 Clear 6 -14.5 3 -16.2 87 87 Calm 30.88 1046 10 16.0934 0 0
6:55 am 06:55 Clear 5 -15 2 -16.7 87 87 Calm 30.87 1045 10 16.0934 0 0
7:15 am 07:15 Clear 4 -15.3 2 -16.9 88 88 Calm 30.88 1046 10 16.0934 0 0
7:35 am 07:35 Clear 6 -14.3 3 -16.1 86 86 Calm 30.86 1045 10 16.0934 0 0
7:55 am 07:55 Clear 6 -14.2 3 -16.3 84 84 Calm 30.88 1046 10 16.0934 0 0
8:15 am 08:15 Sunny 6 -14.5 2 -16.6 84 84 Calm 30.89 1046 10 16.0934 0 0
8:35 am 08:35 Sunny 6 -14.5 2 -16.6 84 84 Calm 30.88 1046 10 16.0934 0 0
8:55 am 08:55 Sunny 7 -14 3 -16.3 83 83 Calm 30.88 1046 10 16.0934 0 0
9:15 am 09:15 Sunny 8 -13.5 3 -16.1 81 81 SE 3 6 30.89 1046 10 16.0934 0 0
9:35 am 09:35 Sunny 9 -12.6 4 -15.5 79 79 ESE 6 9 30.88 1046 10 16.0934 0 0
9:55 am 09:55 Sunny 10 -12.2 4 -15.6 76 76 E 5 7 30.87 1045 10 16.0934 0 0
10:15 am 10:15 Sunny 11 -11.8 4 -15.6 74 74 ESE 6 9 30.87 1045 10 16.0934 0 0
10:35 am 10:35 Sunny 12 -11.2 4 -15.3 72 72 E 6 9 30.86 1045 10 16.0934 0 0
10:55 am 10:55 Sunny 13 -10.4 6 -14.5 72 72 SE 8 13 30.85 1045 10 16.0934 0 0
11:15 am 11:15 Sunny 15 -9.7 7 -14.1 71 71 SE 6 9 30.83 1044 10 16.0934 0 0
11:35 am 11:35 Sunny 15 -9.3 7 -14.1 68 68 SE 6 9 30.82 1044 10 16.0934 0 0
11:55 am 11:55 Sunny 17 -8.6 7 -13.7 67 67 SE 5 7 30.8 1043 10 16.0934 0 0
12:15 pm 12:15 Sunny 17 -8.1 8 -13.5 65 65 SE 8 13 30.79 1043 10 16.0934 0 0
12:35 pm 12:35 Sunny 19 -7.4 8 -13.2 64 64 SE 9 15 30.76 1042 10 16.0934 0 0
12:55 pm 12:55 Sunny 20 -6.8 8 -13.1 61 61 SE 9 15 30.73 1041 10 16.0934 0 0
1:15 pm 13:15 Sunny 20 -6.5 9 -12.9 61 61 SE 8 13 30.72 1040 10 16.0934 0 0
1:35 pm 13:35 Sunny 21 -5.9 9 -12.8 59 59 SE 10 17 30.7 1039 10 16.0934 0 0
1:55 pm 13:55 Sunny 22 -5.6 10 -12.5 59 59 SE 9 15 30.68 1039 10 16.0934 0 0
2:15 pm 14:15 Sunny 23 -5.1 10 -12.5 56 56 SE 10 17 30.68 1039 10 16.0934 0 0
2:35 pm 14:35 Sunny 22 -5.3 9 -12.6 57 57 SE 13 20 30.66 1038 10 16.0934 0 0
2:55 pm 14:55 Sunny 23 -5.1 9 -12.7 56 56 SE 14 22 30.66 1038 10 16.0934 0 0
3:15 pm 15:15 Sunny 22 -5.4 9 -13 56 56 SE 15 24 30.65 1038 10 16.0934 0 0
3:35 pm 15:35 Sunny 22 -5.3 9 -12.9 56 56 SE 14 22 30.65 1038 10 16.0934 0 0
3:55 pm 15:55 Sunny 23 -5.1 9 -12.7 56 56 SE 15 24 30.65 1038 10 16.0934 0 0
4:15 pm 16:15 Sunny 23 -5.1 9 -12.6 56 56 SE 14 22 30.65 1038 10 16.0934 0 0
4:35 pm 16:35 Partly Cloudy 23 -5.2 10 -12.5 57 57 SE 12 19 30.65 1038 10 16.0934 0 0
4:55 pm 16:55 Mostly Cloudy 23 -5.1 10 -12.2 58 58 SSE 10 17 30.66 1038 10 16.0934 0 0
5:15 pm 17:15 Cloudy 23 -5 10 -12.4 57 57 SSE 10 17 30.65 1038 10 16.0934 0 0
5:35 pm 17:35 Cloudy 23 -5 10 -12.1 58 58 SSE 9 15 30.64 1037 10 16.0934 0 0
5:55 pm 17:55 Cloudy 23 -5 11 -11.8 59 59 SE 10 17 30.64 1037 10 16.0934 0 0
7:15 pm 19:15 Cloudy 22 -5.7 10 -12.1 61 61 SSE 9 15 30.63 1037 10 16.0934 0 0
7:35 pm 19:35 Cloudy 22 -5.7 11 -11.7 63 63 SSE 8 13 30.62 1037 10 16.0934 0 0
7:55 pm 19:55 Cloudy 22 -5.7 11 -11.7 63 63 SSE 10 17 30.61 1037 10 16.0934 0 0
8:15 pm 20:15 Cloudy 22 -5.6 11 -11.8 62 62 SSE 13 20 30.61 1037 10 16.0934 0 0
8:35 pm 20:35 Cloudy 22 -5.7 11 -11.9 62 62 SE 12 19 30.59 1036 10 16.0934 0 0
8:55 pm 20:55 Cloudy 22 -5.8 11 -11.6 64 64 ESE 14 22 30.56 1035 10 16.0934 0 0
9:15 pm 21:15 Cloudy 21 -6.2 11 -11.7 65 65 ESE 16 26 30.56 1035 10 16.0934 0 0
9:35 pm 21:35 Mostly Cloudy 20 -6.5 11 -11.8 66 66 ESE 16 26 30.55 1035 10 16.0934 0 0
9:55 pm 21:55 Partly Cloudy 20 -6.5 11 -11.6 67 67 ESE 14 22 30.54 1034 10 16.0934 0 0
10:15 pm 22:15 Clear 20 -6.6 11 -11.5 68 68 SE 14 22 30.55 1035 10 16.0934 0 0
10:35 pm 22:35 Partly Cloudy 20 -6.6 12 -11.3 70 70 SE 12 19 30.54 1034 10 16.0934 0 0
10:55 pm 22:55 Partly Cloudy 20 -6.7 12 -11.1 71 71 SE 10 17 30.53 1034 10 16.0934 0 0
11:15 pm 23:15 Clear 21 -6.2 12 -11.1 69 69 SSE 13 20 30.53 1034 10 16.0934 0 0
11:35 pm 23:35 Mostly Cloudy with Scattered Snow Showers 21 -6.3 13 -10.5 72 72 SSE 16 26 30.53 1034 10 16.0934 0 0
11:55 pm 23:55 Cloudy with Light Snow 20 -6.5 15 -9.6 79 79 SSE 15 24 30.52 1034 10 16.0934 0 0

Powered by AerisWeather